This demonstration page uses our WeatherBlox Daily Observations layout. Learn more.

Left ArrowRight Arrow

39.92423, -83.80882

Hourly Observations for August 10, 2016

Temp ( °F °C ) Dew Point ( °F °C ) Humidity (%) Winds ( mph kmh ) Pressure ( in mb ) Visibility ( mi km ) Precip ( " mm )
12:56 am 00:56 Mostly Cloudy 72 22.2 71 21.7 97 97 N N/A 30.05 1018 10 16.0934 N/A
1:14 am 01:14 Partly Cloudy with Mist and Fog 72 22 72 22 100 100 N N/A 30.06 1018 1.75 2.816345 N/A
1:20 am 01:20 Partly Cloudy with Mist and Fog 72 22 72 22 100 100 N N/A 30.06 1018 3 4.82802 N/A
1:56 am 01:56 Cloudy 72 22.2 72 22.2 100 100 SSE 3 6 N/A 10 16.0934 N/A
2:56 am 02:56 Mostly Cloudy 72 22.2 71 21.7 97 97 SSE 6 9 30.05 1018 10 16.0934 N/A
3:56 am 03:56 Mostly Cloudy 73 22.8 71 21.7 94 94 N N/A 30.04 1017 10 16.0934 N/A
4:56 am 04:56 Cloudy 73 22.8 72 22.2 96 96 undefined N/A N/A 10 16.0934 N/A
5:56 am 05:56 Cloudy 73 22.8 72 22.2 96 96 SE 3 6 N/A 10 16.0934 N/A
6:56 am 06:56 Cloudy 73 22.8 72 22.2 96 96 N N/A 30.07 1018 10 16.0934 N/A
7:56 am 07:56 Cloudy 74 23.3 72 22.2 94 94 N N/A 30.1 1019 10 16.0934 N/A
8:56 am 08:56 Cloudy 76 24.4 73 22.8 91 91 E 5 7 30.11 1020 10 16.0934 N/A
9:46 am 09:46 Cloudy with Thunderstorms 75 24 73 23 94 94 SSE 5 7 30.12 1020 10 16.0934 N/A
9:56 am 09:56 Cloudy with Light Thunderstorms 76 24.4 73 22.8 91 91 SSE 6 9 N/A 9 14.48406 N/A
10:07 am 10:07 Cloudy with Heavy Thunderstorms 75 24 73 23 94 94 SSE 6 9 30.12 1020 1.75 2.816345 0.02 0.508
10:14 am 10:14 Cloudy with Thunderstorms 73 23 73 23 100 100 SE 6 9 30.12 1020 3 4.82802 0.04 1.016
10:25 am 10:25 Cloudy with Rain 73 23 73 23 100 100 ESE 3 6 30.12 1020 9 14.48406 0.07 1.778
10:56 am 10:56 Mostly Cloudy with Nearby Thunderstorms 75 23.9 74 23.3 96 96 S 5 7 30.14 1021 10 16.0934 0.16 4.064
11:08 am 11:08 Cloudy with Nearby Thunderstorms 75 24 73 23 94 94 SW 8 13 30.15 1021 9 14.48406 0.02 0.508
11:15 am 11:15 Cloudy 75 24 73 23 94 94 SW 9 15 30.15 1021 10 16.0934 0.03 0.762
11:25 am 11:25 Cloudy with Nearby Thunderstorms 75 24 73 23 94 94 SW 9 15 30.15 1021 10 16.0934 0.05 1.27
11:46 am 11:46 Cloudy with Heavy Thunderstorms 73 23 73 23 100 100 S 10 17 N/A 6 9.65604 0.09 2.286
11:52 am 11:52 Cloudy with Heavy Thunderstorms 73 23 73 23 100 100 SSW 6 9 30.15 1021 5 8.0467 0.1 2.54
11:56 am 11:56 Cloudy with Heavy Thunderstorms 74 23.3 73 22.8 97 97 SSW 6 9 30.15 1021 7 11.26538 0.11 2.794
12:05 pm 12:05 Cloudy with Thunderstorms 73 23 72 22 94 94 WSW 7 11 30.15 1021 10 16.0934 0.02 0.508
12:56 pm 12:56 Mostly Cloudy with Light Rain 74 23.3 72 22.2 94 94 SSW 3 6 30.14 1021 10 16.0934 0.11 2.794
1:56 pm 13:56 Sunny 77 25 74 23.3 90 90 S 6 9 N/A 10 16.0934 0.06 1.524
2:56 pm 14:56 Mostly Sunny 82 27.8 76 24.4 82 82 VRB 3 6 N/A 10 16.0934 0.04 1.016
3:23 pm 15:23 Mostly Cloudy 84 29 75 24 74 74 VRB 3 6 30.09 1019 10 16.0934 0.01 0.254
3:37 pm 15:37 Partly Cloudy 84 29 75 24 74 74 undefined N/A N/A 10 16.0934 0.02 0.508
3:56 pm 15:56 Partly Cloudy with Nearby Thunderstorms 83 28.3 76 24.4 79 79 SSW 3 6 30.1 1019 10 16.0934 0.02 0.508
4:10 pm 16:10 Mostly Sunny 82 28 75 24 79 79 SSW 3 6 30.06 1018 10 16.0934 N/A
4:22 pm 16:22 Sunny with Nearby Thunderstorms 82 28 75 24 79 79 SW 5 7 30.06 1018 10 16.0934 N/A
4:54 pm 16:54 Mostly Cloudy 81 27 73 23 79 79 undefined N/A N/A 10 16.0934 N/A
4:56 pm 16:56 Mostly Cloudy 80 26.7 74 23.3 82 82 WNW 5 7 30.1 1019 10 16.0934 N/A
5:56 pm 17:56 Cloudy 82 27.8 76 24.4 82 82 WSW 3 6 30.09 1019 10 16.0934 N/A
6:56 pm 18:56 Sunny 81 27.2 76 24.4 85 85 N N/A 30.08 1019 10 16.0934 N/A
7:56 pm 19:56 Partly Cloudy 80 26.7 75 23.9 85 85 SE 9 15 30.09 1019 10 16.0934 N/A
8:38 pm 20:38 Mostly Cloudy with Nearby Thunderstorms 77 25 73 23 89 89 S 3 6 30.09 1019 10 16.0934 N/A
8:56 pm 20:56 Mostly Cloudy with Nearby Thunderstorms 76 24.4 73 22.8 91 91 SSW 5 7 30.1 1019 10 16.0934 N/A
9:13 pm 21:13 Cloudy with Nearby Thunderstorms 75 24 73 23 94 94 S 3 6 30.09 1019 10 16.0934 N/A
9:31 pm 21:31 Cloudy with Light Rain 75 24 73 23 94 94 N N/A 30.09 1019 10 16.0934 N/A
9:56 pm 21:56 Partly Cloudy with Light Rain 75 23.9 73 22.8 94 94 S 3 6 30.09 1019 10 16.0934 N/A
10:56 pm 22:56 Cloudy 74 23.3 73 22.8 97 97 SE 3 6 30.1 1019 10 16.0934 N/A
11:56 pm 23:56 Clear 75 23.9 73 22.8 94 94 undefined N/A N/A 10 16.0934 N/A

Powered by AerisWeather